Regional Weather Roundup
Issued by NWS Green Bay, WI

Home | Current Version | Previous Version | Graphics & Text | Print | Product List | Glossary Off
Versions: 1 2 3 4 5 6 7 8 9 10 11 12 13 14 15 16 17 18 19 20 21 22 23 24 25 26 27 28 29 30 31 32 33 34 35 36 37 38 39 40 41 42 43 44 45 46 47 48 49 50

000
ASUS43 KGRB 051210
RWRGRB

NORTH-CENTRAL AND NORTHEAST WISCONSIN REGIONAL WEATHER ROUNDUP
NATIONAL WEATHER SERVICE GREEN BAY WI
700 AM CDT TUE MAY 05 2015

WIZ005-009-010>012-018-019-051300-
NORTH CENTRAL WISCONSIN

CITY           SKY/WX    TMP DP  RH WIND       PRES   REMARKS
IRONWOOD       SUNNY     37  34  87 CALM      30.27R
MANITOWISH WTR SUNNY     36  36  99 CALM      30.30R
ARBOR VITAE    SUNNY     43  38  84 SE3       30.30R
EAGLE RIVER    SUNNY     38  37  96 CALM      30.31R
LAND O LAKES   SUNNY     36  35  94 CALM      30.32R
RHINELANDER    SUNNY     44  38  79 NE3       30.31R
PHILLIPS       SUNNY     43  34  70 CALM      30.28R
ANTIGO         MOSUNNY   45  33  62 CALM      30.30R
TOMAHAWK       MOSUNNY   38  37  95 CALM      30.30R
MERRILL        PTSUNNY   42  37  80 CALM      30.29R
$$

WIZ013-073-051300-
NORTHEAST WISCONSIN

CITY           SKY/WX    TMP DP  RH WIND       PRES   REMARKS
IRON MOUNTAIN  MOSUNNY   40  37  89 NW3       30.31R
MARINETTE      PTSUNNY   46  36  66 NE6       30.31R
OCONTO         CLOUDY    45  38  76 S3        30.32R
$$

WIZ017-030-035>037-045-051300-
CENTRAL WISCONSIN

CITY           SKY/WX    TMP DP  RH WIND       PRES   REMARKS
MEDFORD        MOSUNNY   44  35  70 E9        30.27R
WAUSAU         MOSUNNY   47  33  58 E6        30.27R
MOSINEE        SUNNY     45  34  65 E9        30.28R
MARSHFIELD     MOSUNNY   50  32  50 E7        30.26R
WISC RAPIDS    PTSUNNY   49  33  54 E9        30.28R
STEVENS POINT  PTSUNNY   46  34  62 E8        30.29R
WAUPACA        CLOUDY    50  38  64 CALM      30.30R
SHAWANO        PTSUNNY   49  37  65 NE7       30.31R
CLINTONVILLE   CLOUDY    45  36  70 CALM      30.30R
$$

WIZ038-039-048-051-051300-
FOX VALLEY

CITY           SKY/WX    TMP DP  RH WIND       PRES   REMARKS
NWS GREEN BAY  CLOUDY    49  36  61 E6        30.31R
APPLETON       PTSUNNY   48  34  57 E6        30.29R
OSHKOSH        CLOUDY    51  37  58 E5        30.28R
FOND DU LAC    CLOUDY    52  35  52 E6        30.27R
$$

WIZ022-050-052-051300-
EAST CENTRAL WISCONSIN

CITY           SKY/WX    TMP DP  RH WIND       PRES   REMARKS
STURGEON BAY   CLOUDY    46  34  61 E8        30.33R
MANITOWOC      CLOUDY    46  37  71 NE6       30.30R
SHEBOYGAN      CLOUDY    45  36  70 NE8       30.28R
$$

LMZ563-521-522-541>543-051300-
LAKESHORE

STATION/POSITION TIME  TEMP    WIND        PRES    VSBY  WAVE
                       AIR SEA DIR/SP/G                  HT/PER
                 (UTC) (F)     (DEG/KT/KT) (MB)    (MI)  (FT/S)
SHEBOYGAN LKSHOR 1200   44      20/  8/  9 1026.3R
KEWAUNEE LKSHORE 1200   43      40/  5/  9 1025.4R
NORTHPORT PIER   1200   46     310/  2/  2 1026.8R
SISTER BAY LKSHO 1100   42        CALM       N/A
CHAMBERS ISLAND  1200   45      10/  6/  7 1026.8S
MENOMINEE LKSHOR 1200   47      20/ 10/ 12 1026.7R
$$


USA.gov is the U.S. government's official web portal to all federal, state and local government web resources and services.